User: anonymous   Login
Location: Newark
(12.0500°N, 61.7500°W)
Time: 01:00:13
(UTC+00:00)
Language:

Envisat - Orbit

View from above orbital plane
View from above orbital plane
View from above satellite
View from above satellite

Ground track
Ground track

The orbit data is extracted from the following two-line orbital elements,

1 27386U 02009A   20051.62966215  .00000013  00000-0  17862-4 0  9994
2 27386  98.1398  64.8552 0001200  94.3201  14.8715 14.37971873941682
Epoch (UTC): 20 February 2020 15:06:42
Eccentricity: 0.0001200
inclination: 98.1398°
perigee height: 764 km
apogee height: 766 km
right ascension of ascending node: 64.8552°
argument of perigee: 94.3201°
revolutions per day: 14.37971873
mean anomaly at epoch: 14.8715°
orbit number at epoch: 94168

The dashed part of the orbit path shows where the satellite is in the earth's shadow,  

DLR